Vertical_Velocity
2 0 5 3 23 10 10 1 1 3 10 -4 -0 -0 -4 1 -0 2 -0 -1 -0 -2 -1 0 1 -2 -2 0 -2 -1 -2 -4 -1 -9 -2 -1 -1 -3 -3 -6 -3 -1 -4 -15
-0 4 3 3 6 -1 2 -2 1 21 5 -1 0 -1 -1 0 1 -1 1 -0 -2 -0 -1 -2 -0 -0 1 0 -0 -4 -4 -1 -2 -11 -8 -1 1 -1 -1 -1 -2 -2 -3 -10
2 -0 7 5 7 6 9 -6 -1 1 16 3 0 0 -2 -0 2 0 0 -1 -0 0 1 0 -0 0 1 -0 -0 1 -1 -0 -5 -8 -4 -2 1 0 -0 -2 -1 -2 -5 -4
-0 7 -0 2 13 8 -0 -3 -3 -3 -1 -0 1 1 0 0 0 0 1 1 0 -2 0 0 -0 0 0 -1 -0 -0 -4 -1 0 -1 -0 0 -0 -0 -0 1 -3 -1 -3 -1
-1 -2 -1 5 14 16 2 -14 -6 4 0 -0 4 1 -2 -1 1 -4 1 -1 -1 0 -0 -4 -1 -2 -0 -1 -1 -0 0 1 0 -1 -1 1 0 -0 0 -0 -1 1 1 -5
-2 2 -3 7 13 8 1 5 2 -3 -1 1 2 -2 -2 -1 -1 -0 -0 -3 -2 1 -2 -1 -1 -0 -1 -2 -2 -0 -1 -1 0 -2 0 -0 0 -8 -2 -1 -0 -1 0 -10
0 -11 -2 11 7 13 -2 -6 -6 -3 -0 -0 -3 -0 -1 -0 -2 -1 -1 2 -3 -1 -2 -0 0 1 1 1 -1 -1 -1 -0 -0 -1 -1 -1 -5 -0 -1 -1 1 -1 -2 -1
-12 1 5 9 10 1 5 -5 -4 -4 -1 -2 2 2 -1 1 2 -0 -1 -0 2 4 -2 -2 -1 -0 -1 -2 -1 1 -1 -1 0 -1 -1 -6 -8 -0 0 -1 2 1 1 -1
-6 4 6 2 8 -3 -3 -3 3 -3 -6 -5 -1 -1 -1 -1 0 2 1 5 2 -2 -1 -0 -0 -1 -1 -1 1 -0 2 2 0 1 -0 -2 -4 -1 2 1 -1 1 3 1
-2 -1 2 2 5 7 -1 -4 -1 -5 -3 -0 1 -3 -5 1 0 -2 0 0 -1 -1 -0 0 -1 -2 -2 -0 -0 0 2 2 -1 -0 -0 -6 -0 -1 2 1 -5 2 2 4
5 4 4 1 2 6 1 -7 1 6 -2 0 1 -2 -2 -1 3 -3 1 -3 -0 0 0 1 -2 1 -1 0 -1 -2 -4 -2 -1 3 3 -4 2 -5 -6 -3 -0 3 0 1
2 1 1 -1 0 1 -6 -0 -3 1 2 2 0 -1 1 -0 2 -4 4 -1 -1 -1 -2 -1 -1 0 0 -1 -2 -1 -2 -4 -4 -3 -3 1 4 -2 -1 -0 -0 -1 -1 -2
-4 -8 -4 -2 0 5 8 1 1 4 -3 -0 -0 1 1 3 1 1 -8 1 -1 -0 0 -3 -1 -2 -2 -1 -4 0 1 0 -1 -2 1 -0 -2 1 2 1 -1 -3 -3 -1
-3 -6 -4 1 1 2 3 1 3 1 -0 -6 0 1 2 -2 -2 -2 -2 -3 -3 -2 0 -1 -1 -1 -1 -2 -2 -1 -3 0 -2 -3 -4 -3 2 -1 1 -2 -1 -3 -2 -2
1 1 -1 1 2 1 -0 3 1 3 -3 -5 1 3 0 4 1 0 -0 2 -1 -1 -2 -1 -2 -0 -1 0 -2 -0 -2 -6 -3 -5 -3 2 -8 -7 5 1 -0 1 -0 -9
1 3 3 2 4 2 -2 -11 -2 -2 -2 -9 -1 3 2 1 2 2 1 -0 -1 -1 -2 -1 -0 1 -1 -1 -1 -6 -1 1 4 -8 -1 3 -3 -4 0 2 1 2 2 0
2 1 1 -2 -1 3 -1 0 1 2 0 -6 -0 0 1 2 2 1 1 -0 -1 -1 -2 -1 -0 -1 1 -0 -0 -3 -0 0 3 4 2 -11 1 -10 -3 4 -2 3 1 -0
-2 -2 1 1 1 1 -6 -3 1 2 -2 -2 -3 -2 -1 0 0 -1 1 -0 0 1 0 0 -1 1 1 -1 -4 -1 0 1 0 1 3 3 -2 -7 -8 -1 -3 -5 -4 -3
-2 0 -1 -3 -1 -3 -3 1 1 1 -2 -4 -2 -3 -3 1 0 0 -0 -0 -2 0 -1 -0 0 -0 -2 -5 -1 -0 2 3 -2 -8 -5 -3 1 -5 -7 -2 -6 4 -4 -3
-2 2 1 -3 -1 1 1 -2 -3 -3 -3 -2 -2 0 -2 -0 0 1 -1 -0 -0 -1 -5 1 2 -2 -0 -1 3 3 -6 -4 2 -0 -13 -1 -3 2 -2 -2 2 2 -2 -1
-1 -3 -3 -0 -1 -2 -3 -3 -5 -1 -4 0 1 1 -2 1 -4 -1 1 -2 -1 -1 -7 1 -1 1 -2 -1 -3 -1 -2 -1 -2 5 1 -2 3 2 -0 -7 -2 0 1 -2
-2 -4 -5 -2 -2 -2 -10 -2 -4 -2 -2 0 -1 0 1 -0 -0 -3 -1 -1 -2 -3 -1 -1 -0 -3 -3 -3 -4 -4 -1 -1 -4 5 0 -0 -0 3 2 1 -4 -2 -0 -2
-1 -2 -3 -2 -0 -10 -6 -2 -5 -2 -1 0 -0 -2 -0 0 0 -1 -1 -2 -3 0 0 -3 -4 -1 -1 -1 -0 -5 -0 -0 -1 -6 2 1 -2 1 5 -3 -0 1 2 -1
-2 -2 -6 -8 -5 -2 -3 -2 -2 0 0 0 1 -1 -1 0 -3 0 -1 -5 -1 -1 -0 -4 -2 0 -2 0 0 -2 -5 1 -2 -3 -1 -1 1 -4 -0 2 4 5 2 1
-3 -1 -4 -1 0 0 -0 0 1 1 1 1 -2 -2 -0 -0 -3 -1 -3 -6 -2 -3 -5 -2 1 -0 -1 -3 -2 -1 -1 -3 -4 -0 -1 -1 -1 1 -4 2 3 5 -0 1
-2 -1 -3 1 -1 -0 0 -0 -0 0 0 -0 -1 -1 -4 -2 -2 -2 -3 -2 -4 -7 -1 -0 -3 -3 -0 1 0 0 -1 0 -1 -0 1 0 1 2 -0 -1 2 3 2 1
-1 -0 1 0 0 0 0 0 1 -0 0 -2 -1 -2 -9 -3 -2 -1 -2 -4 -4 1 -4 -0 4 3 -2 -1 -0 -1 0 -2 -0 -0 1 0 2 0 2 -1 1 3 2 -0
Height
1476 1477 1479 1481 1482 1481 1484 1488 1493 1492 1496 1503 1501 1498 1495 1487 1484 1486 1488 1489 1490 1492 1491 1494 1497 1492 1487 1488 1489 1495 1496 1505 1508 1499 1496 1495 1493 1495 1497 1513 1512 1522 1527 1503
1468 1469 1471 1471 1470 1471 1477 1484 1488 1489 1493 1494 1493 1489 1486 1484 1484 1484 1485 1486 1486 1488 1487 1492 1490 1486 1487 1488 1489 1492 1494 1502 1517 1501 1498 1495 1495 1492 1492 1496 1502 1506 1520 1490
1460 1462 1463 1463 1464 1463 1472 1479 1484 1488 1488 1488 1489 1487 1484 1482 1482 1482 1484 1486 1488 1488 1487 1487 1489 1488 1488 1488 1489 1490 1491 1499 1500 1508 1493 1493 1492 1491 1491 1492 1506 1495 1488 1484
1452 1454 1455 1456 1457 1456 1466 1471 1474 1476 1480 1481 1482 1485 1484 1480 1482 1481 1483 1485 1486 1487 1489 1488 1489 1489 1490 1489 1490 1491 1491 1495 1500 1498 1497 1495 1492 1490 1492 1493 1489 1490 1481 1485
1442 1445 1445 1448 1451 1452 1461 1463 1468 1472 1472 1476 1478 1478 1480 1480 1481 1480 1477 1482 1484 1487 1487 1484 1488 1487 1491 1488 1491 1491 1493 1493 1493 1495 1496 1496 1493 1489 1489 1487 1483 1483 1480 1475
1435 1435 1439 1443 1445 1447 1451 1457 1459 1463 1469 1471 1475 1473 1473 1478 1477 1479 1479 1474 1482 1486 1485 1483 1486 1486 1489 1490 1491 1493 1491 1494 1497 1497 1496 1491 1488 1478 1476 1475 1477 1474 1477 1469
1425 1428 1431 1440 1442 1443 1445 1449 1455 1462 1464 1465 1468 1470 1472 1475 1475 1477 1479 1478 1478 1484 1485 1485 1484 1486 1487 1489 1489 1488 1491 1495 1497 1499 1496 1498 1471 1469 1470 1475 1476 1476 1473 1470
1419 1426 1429 1434 1442 1441 1445 1449 1453 1458 1463 1461 1466 1466 1469 1473 1473 1475 1477 1479 1480 1483 1484 1486 1487 1486 1487 1483 1485 1486 1488 1491 1493 1496 1497 1483 1472 1472 1471 1470 1482 1479 1475 1471
1417 1425 1426 1434 1437 1441 1445 1450 1451 1456 1460 1464 1460 1464 1468 1470 1472 1474 1475 1478 1479 1483 1485 1485 1489 1485 1481 1481 1484 1486 1487 1488 1488 1494 1492 1492 1476 1473 1472 1473 1483 1479 1476 1473
1414 1420 1426 1430 1437 1437 1442 1446 1452 1456 1459 1461 1461 1464 1466 1467 1469 1469 1475 1478 1478 1479 1485 1485 1486 1485 1482 1481 1479 1485 1486 1488 1483 1482 1483 1482 1479 1475 1472 1477 1488 1481 1479 1478
1410 1417 1422 1427 1432 1436 1440 1446 1450 1455 1457 1459 1459 1462 1464 1465 1466 1468 1472 1476 1479 1481 1482 1482 1481 1482 1484 1484 1480 1481 1480 1483 1481 1481 1481 1481 1478 1476 1482 1487 1483 1482 1480 1480
1411 1417 1421 1427 1431 1435 1439 1444 1448 1453 1457 1457 1458 1462 1464 1465 1465 1466 1469 1470 1471 1474 1479 1482 1483 1484 1491 1488 1484 1482 1485 1481 1482 1483 1479 1479 1479 1482 1483 1482 1483 1481 1480 1480
1413 1419 1425 1429 1433 1437 1440 1444 1448 1451 1454 1458 1462 1463 1463 1463 1464 1465 1467 1469 1470 1472 1473 1477 1482 1487 1485 1491 1488 1482 1480 1480 1482 1480 1479 1477 1478 1480 1481 1481 1481 1480 1478 1477
1419 1423 1427 1430 1433 1437 1441 1443 1447 1449 1452 1458 1463 1462 1463 1463 1464 1465 1466 1466 1469 1472 1474 1476 1481 1484 1481 1487 1482 1483 1480 1481 1481 1481 1476 1473 1474 1477 1477 1475 1475 1473 1472 1471
1422 1425 1428 1432 1435 1437 1441 1444 1446 1448 1453 1458 1461 1462 1464 1463 1463 1464 1465 1467 1468 1472 1474 1478 1481 1479 1481 1481 1482 1482 1475 1476 1479 1476 1474 1474 1473 1470 1469 1467 1466 1465 1465 1464
1424 1427 1430 1433 1436 1439 1441 1446 1449 1449 1451 1455 1462 1464 1463 1463 1464 1465 1466 1468 1470 1472 1474 1476 1476 1475 1477 1484 1483 1470 1469 1469 1469 1469 1470 1469 1467 1465 1462 1460 1458 1457 1457 1455
1426 1429 1432 1435 1438 1440 1442 1445 1446 1448 1451 1453 1462 1462 1463 1463 1464 1465 1467 1468 1470 1472 1474 1474 1474 1474 1475 1477 1477 1466 1466 1466 1466 1466 1466 1464 1461 1458 1455 1453 1449 1448 1446 1444
1429 1432 1434 1437 1439 1441 1444 1445 1447 1449 1450 1452 1460 1464 1463 1463 1464 1466 1467 1468 1470 1472 1472 1473 1473 1473 1473 1476 1463 1463 1463 1463 1462 1462 1462 1459 1456 1451 1447 1445 1441 1437 1435 1433
1431 1435 1438 1440 1442 1444 1446 1447 1448 1449 1452 1452 1457 1463 1468 1464 1465 1466 1468 1469 1473 1472 1471 1470 1471 1471 1472 1462 1461 1461 1462 1461 1460 1457 1454 1450 1446 1442 1438 1435 1431 1428 1425 1423
1435 1438 1439 1442 1444 1446 1448 1449 1450 1450 1452 1454 1458 1461 1464 1465 1465 1467 1470 1470 1471 1478 1468 1467 1466 1462 1459 1459 1460 1460 1459 1458 1456 1452 1445 1441 1436 1433 1429 1425 1422 1418 1413 1410
1437 1438 1441 1445 1446 1448 1449 1450 1453 1456 1458 1457 1460 1461 1463 1465 1468 1469 1470 1473 1472 1478 1469 1466 1461 1456 1458 1458 1458 1457 1455 1452 1448 1446 1441 1436 1430 1423 1418 1412 1409 1405 1401 1397
1438 1439 1443 1447 1448 1449 1453 1464 1460 1459 1461 1460 1460 1462 1463 1465 1466 1467 1470 1472 1473 1479 1466 1467 1462 1460 1457 1457 1454 1451 1448 1443 1439 1435 1430 1425 1419 1414 1409 1403 1397 1392 1387 1383
1440 1442 1445 1447 1453 1459 1465 1471 1471 1466 1458 1459 1461 1463 1464 1465 1467 1468 1470 1475 1473 1466 1468 1463 1459 1454 1454 1452 1448 1443 1440 1435 1431 1425 1420 1415 1409 1404 1399 1392 1386 1381 1375 1370
1441 1443 1453 1458 1465 1461 1459 1459 1457 1457 1458 1459 1460 1462 1464 1465 1467 1471 1471 1470 1469 1474 1479 1464 1454 1452 1449 1446 1443 1437 1431 1428 1423 1417 1411 1406 1400 1394 1388 1383 1377 1370 1364 1361
1443 1446 1456 1460 1454 1454 1455 1455 1456 1457 1459 1460 1461 1463 1466 1467 1471 1472 1472 1476 1477 1469 1464 1452 1450 1448 1445 1440 1436 1431 1426 1420 1415 1410 1404 1398 1393 1386 1379 1374 1368 1363 1360 1357
1446 1448 1453 1454 1454 1455 1455 1456 1456 1458 1459 1461 1462 1466 1472 1474 1473 1474 1476 1479 1475 1456 1450 1448 1446 1442 1438 1434 1430 1425 1420 1415 1409 1403 1398 1392 1386 1381 1374 1368 1363 1359 1357 1355
1448 1450 1451 1452 1453 1454 1455 1456 1457 1458 1460 1462 1462 1470 1470 1472 1476 1474 1464 1463 1451 1447 1445 1443 1440 1437 1433 1428 1424 1419 1414 1408 1402 1397 1392 1386 1381 1376 1371 1366 1362 1359 1357 1356